Temperature
12 12 13 13 13 13 13 13 13 13 13 13 13 14 14 14 14 14 14 14 14 14 14 14 14 14 14 14 14 14 14 14 14 14 14 14 15 15 15 15 15 15 15
12 12 12 13 13 13 13 13 13 13 13 13 13 13 13 13 13 13 13 13 14 14 14 14 14 14 14 14 14 14 14 14 14 14 14 14 14 14 14 15 14 14 14
12 12 12 12 12 12 13 13 13 13 13 13 13 13 13 13 13 13 13 13 13 13 14 14 14 14 14 14 14 14 14 14 14 14 14 14 14 14 14 14 14 14 14
11 12 12 12 12 12 12 12 12 13 13 13 13 13 13 13 13 13 13 13 13 14 14 14 14 14 14 14 14 14 14 14 14 13 13 13 14 14 14 14 14 14 14
11 12 11 12 12 12 12 12 12 12 12 12 12 12 13 13 13 13 13 13 13 13 14 14 14 14 14 14 14 14 14 14 14 13 13 13 13 13 13 13 13 13 13
11 11 11 11 11 11 11 11 12 12 12 12 12 12 12 12 12 13 13 13 13 14 14 14 14 14 14 14 14 14 14 14 14 13 13 13 13 13 13 13 13 13 13
11 11 11 11 11 11 11 11 11 11 11 11 11 12 12 12 12 12 13 13 13 13 14 14 14 14 14 14 14 14 14 14 14 13 13 13 13 13 13 13 13 12 12
11 11 11 11 10 10 11 11 11 11 11 11 11 11 11 11 12 12 12 13 13 13 13 13 14 14 14 14 14 14 14 13 13 13 13 13 13 13 13 13 12 12 12
11 11 11 10 10 10 10 10 10 10 10 11 11 11 11 11 11 12 12 12 12 13 13 13 13 13 13 13 14 14 13 13 13 13 13 13 13 13 13 13 12 12 12
11 11 11 11 10 10 10 10 10 10 10 10 10 10 10 11 11 11 11 12 12 12 12 13 13 13 13 13 13 13 13 13 13 13 13 13 13 12 12 12 12 12 12
11 11 11 11 10 10 10 10 10 10 10 10 10 10 10 10 10 10 11 11 11 12 12 12 12 12 13 13 13 13 13 13 13 13 13 12 12 12 12 12 12 12 12
11 11 11 11 10 10 10 10 10 10 10 9 9 9 9 10 10 10 10 11 11 11 11 12 12 12 12 13 13 13 13 13 13 12 12 12 12 12 12 11 11 11 11
11 11 11 10 10 10 10 10 10 10 10 9 9 9 9 9 10 10 10 10 10 11 11 11 11 12 12 12 12 12 12 12 12 12 12 12 11 11 11 11 11 11 10
11 11 11 10 10 10 10 10 10 9 9 9 9 9 9 9 9 9 10 10 10 10 11 11 11 11 12 12 12 12 12 12 12 12 11 11 11 11 10 10 10 10 10
11 11 11 10 10 10 10 10 9 9 9 9 9 9 9 9 9 9 9 10 10 10 10 11 11 11 11 11 11 11 11 11 11 11 11 11 10 10 10 10 10 9 9
12 11 11 11 10 10 10 10 9 9 9 9 9 9 9 9 9 9 9 10 10 10 10 10 10 11 11 11 11 11 10 10 10 10 10 10 10 10 9 9 9 9 9
12 11 11 11 11 10 10 10 10 9 9 9 9 9 9 9 9 9 9 10 10 10 10 10 10 10 10 10 10 10 10 10 10 10 9 9 9 9 9 9 9 8 8
12 12 11 11 11 11 10 10 10 10 9 9 9 9 9 9 9 10 10 10 10 10 10 10 10 9 9 9 9 9 9 9 9 9 9 9 9 8 8 8 8 8 8
12 12 12 11 11 11 11 10 10 10 10 9 9 9 9 9 9 9 9 10 10 10 9 9 9 9 9 9 9 9 9 9 9 9 9 8 8 8 8 8 8 8 8
13 12 12 12 11 11 11 11 10 10 10 10 9 9 9 9 9 9 9 10 10 9 9 9 9 9 9 9 9 9 9 9 8 8 8 8 8 8 8 8 8 8 7
13 13 12 12 12 11 11 11 11 10 10 10 10 9 9 9 9 9 10 10 10 10 9 9 9 9 9 9 9 9 9 9 8 8 8 8 8 8 8 8 8 8 7
13 13 13 12 12 12 12 11 11 11 10 10 10 10 10 10 10 10 10 10 10 10 10 10 10 10 9 9 9 9 9 9 9 8 8 8 8 8 8 8 8 7 7
13 13 13 13 12 12 12 12 11 11 11 10 10 10 10 10 10 10 10 10 10 10 10 10 10 10 10 10 10 9 9 9 9 8 8 8 8 8 8 8 8 7 7
13 13 13 13 13 12 12 12 12 11 11 11 10 10 10 10 10 10 10 10 10 10 10 10 10 10 10 10 10 10 10 9 9 9 9 9 8 8 8 8 8 7 7
13 13 13 13 13 13 12 12 12 12 12 11 11 11 10 10 10 10 10 10 10 10 10 10 10 10 10 10 10 10 10 10 9 9 9 9 9 8 8 8 8 8 7
13 13 13 13 13 13 13 13 12 12 12 12 11 11 11 10 10 10 10 10 10 11 11 11 11 10 10 10 10 10 10 10 10 9 9 9 9 9 8 8 8 8 7
Wind_Speed
9 8 8 8 8 7 7 7 6 6 6 6 5 5 5 4 4 4 4 4 4 3 3 4 4 3 3 3 3 3 3 3 4 2 1 2 2 2 2 0 2 4 5
9 9 9 9 9 8 8 7 6 6 6 5 5 5 5 4 3 3 3 3 3 3 3 4 4 3 4 3 3 3 3 4 3 2 1 2 2 2 2 1 1 1 3
9 9 10 10 10 9 9 8 8 7 7 7 7 6 6 5 4 3 3 3 3 2 3 3 3 4 4 3 3 3 3 3 3 2 0 1 1 2 2 2 2 2 2
9 10 10 10 9 9 9 10 9 9 8 8 7 7 6 5 5 3 3 2 2 1 1 3 4 5 5 5 4 4 4 4 3 2 1 1 1 1 2 2 2 2 3
9 10 9 9 9 9 10 10 10 10 10 9 8 8 7 5 5 4 3 2 1 1 1 1 3 4 5 5 4 5 5 4 3 3 2 1 1 2 1 1 1 1 3
9 9 9 9 9 9 9 9 9 9 9 9 9 8 8 7 8 8 5 3 2 1 1 1 1 3 4 5 7 8 7 5 4 3 2 2 1 1 1 1 1 2 2
8 8 8 8 8 8 8 9 9 8 8 9 9 9 8 10 12 10 8 4 3 2 2 2 2 3 5 5 6 7 6 6 6 5 4 2 2 0 1 2 2 3 2
8 8 8 8 8 8 8 8 8 7 7 7 8 9 8 11 14 11 8 5 4 4 4 3 3 2 3 6 6 6 5 5 5 5 5 3 2 2 2 2 2 3 3
7 7 7 7 7 8 8 7 6 6 7 7 7 9 9 10 14 12 7 4 4 4 4 4 4 3 3 7 7 7 6 5 7 9 9 8 8 7 5 3 3 3 3
5 5 6 7 7 7 7 7 6 6 6 6 7 8 9 9 13 13 8 3 4 4 4 5 5 4 4 7 6 7 7 5 5 6 7 9 9 10 10 5 3 3 2
4 5 6 6 6 6 6 6 6 6 7 7 7 7 8 9 12 14 11 4 3 4 4 4 4 5 6 6 6 5 6 7 6 7 6 6 6 6 7 8 6 4 3
5 6 7 7 6 6 6 7 7 7 7 8 8 8 7 8 10 11 12 10 6 4 4 3 4 8 9 8 6 9 12 9 6 6 6 5 5 5 5 7 11 12 10
5 6 6 6 6 6 7 7 7 7 7 7 7 7 7 7 9 13 12 12 10 6 5 8 10 11 11 9 11 12 9 6 6 5 5 4 3 3 3 4 6 10 13
5 4 4 5 5 6 5 5 6 6 6 7 7 7 7 7 8 7 6 6 8 8 7 9 13 15 11 11 10 8 6 6 5 5 4 3 3 4 4 3 3 3 5
4 3 3 3 3 3 4 4 4 4 5 5 4 4 5 6 8 10 7 5 5 5 5 6 7 7 8 7 7 7 6 6 5 4 4 4 4 4 4 4 3 4 4
3 3 2 2 1 1 2 3 3 3 7 9 9 6 4 6 9 12 13 13 12 10 8 7 7 7 7 6 6 6 6 5 5 5 5 5 4 5 5 4 4 5 5
3 3 3 2 2 1 1 2 3 4 5 8 10 10 9 10 11 11 11 13 14 11 8 7 6 6 6 6 5 5 4 4 4 5 5 5 5 4 4 4 4 4 4
3 3 3 3 3 2 2 1 1 2 3 4 6 9 10 11 12 11 9 8 8 8 6 6 6 5 5 5 5 5 5 5 5 5 5 4 4 4 4 4 4 3 3
3 3 3 2 2 2 2 1 1 0 1 2 3 4 7 7 10 12 9 6 5 5 5 5 5 4 4 5 5 5 5 5 5 4 4 4 4 4 4 4 4 5 3
3 4 4 3 2 2 2 2 2 1 0 1 1 2 3 4 4 5 5 4 4 4 4 4 4 4 4 4 4 4 4 4 4 4 4 4 4 4 4 4 3 3 2
2 3 4 3 3 3 3 3 3 3 2 2 2 2 1 2 1 1 2 2 2 2 2 2 2 3 3 3 3 4 4 4 3 3 3 3 3 3 3 3 3 3 3
2 2 2 3 3 3 4 4 4 4 4 4 3 1 2 2 2 1 1 1 1 1 1 2 2 1 1 2 2 3 3 3 2 2 3 3 3 3 3 3 3 2 2
2 3 3 3 3 4 4 4 4 5 5 5 4 3 3 3 3 3 3 2 2 2 2 3 2 2 1 2 2 2 2 2 1 2 3 3 3 3 2 2 2 2 2
2 3 4 4 4 4 4 5 5 5 5 5 5 5 5 5 4 5 4 4 3 4 4 4 4 3 3 2 2 2 3 3 2 3 4 4 4 3 3 3 2 3 3
3 3 4 4 4 5 5 5 5 6 6 6 6 5 5 5 5 5 5 4 5 5 6 6 6 5 5 5 4 3 3 3 3 4 5 5 4 4 4 3 3 3 3
4 4 4 4 5 5 5 6 6 6 6 6 6 6 6 6 6 6 6 5 5 5 7 8 8 8 7 6 6 5 4 4 4 5 6 6 5 4 4 3 4 3 4
Wind_Direction
10 10 16 19 22 29 35 35 40 45 52 64 69 75 86 98 109 129 143 158 164 174 175 174 186 172 170 169 165 164 170 167 204 263 281 307 334 354 11 321 233 233 245
11 18 22 24 28 32 34 34 39 44 47 61 70 70 72 79 88 108 126 139 141 161 177 172 176 167 164 163 163 169 176 177 180 218 303 336 351 1 10 19 24 250 248
14 22 26 26 30 31 31 32 35 42 46 48 56 59 60 62 66 73 94 102 119 156 167 167 171 164 166 163 164 165 162 157 153 161 238 346 355 9 27 26 29 13 343
20 25 27 26 29 34 34 35 38 42 44 42 45 45 48 54 53 55 73 94 113 139 169 185 180 179 176 169 164 157 141 130 129 134 128 24 13 7 44 36 27 25 22
24 26 23 23 29 35 37 38 40 44 45 41 43 38 32 38 38 45 60 86 116 127 206 203 180 175 175 165 153 149 139 129 124 119 111 75 35 31 30 12 47 38 43
26 23 19 24 29 31 32 36 40 40 39 40 37 32 29 29 32 44 52 51 60 93 123 119 133 133 151 151 147 148 146 140 142 134 124 115 93 47 42 50 65 69 52
26 22 20 24 30 27 31 35 34 31 34 36 33 28 23 16 27 36 46 56 56 56 66 86 109 115 117 120 122 119 115 122 132 138 130 138 137 149 117 79 68 75 69
29 25 21 24 28 26 31 31 26 26 31 31 30 24 21 18 25 28 36 45 53 50 46 57 85 85 107 126 119 106 92 84 101 106 116 116 122 123 117 115 109 93 68
31 27 23 27 31 31 31 25 19 25 30 29 24 21 20 12 18 27 39 39 48 43 40 45 66 77 106 132 126 118 104 87 88 100 97 88 79 80 94 94 83 81 61
32 32 32 35 37 33 29 25 21 26 26 25 25 19 16 11 14 23 34 44 52 48 42 40 49 63 105 123 128 130 124 114 105 90 74 64 61 60 60 67 98 105 101
57 50 40 36 42 37 34 28 24 25 27 23 19 13 14 13 13 21 30 44 50 59 55 38 31 60 93 113 118 121 129 124 108 100 87 70 57 53 48 49 54 81 101
76 62 49 38 39 39 40 34 28 25 28 21 16 14 11 10 13 21 34 48 57 66 57 43 47 69 82 89 98 112 116 111 104 98 88 74 64 58 56 61 67 68 68
88 73 61 52 44 38 43 38 31 28 29 22 19 15 7 6 9 22 34 47 53 63 63 71 71 70 71 72 82 94 98 101 102 98 93 79 65 65 72 69 63 69 61
108 92 74 63 50 40 40 39 38 29 24 21 17 11 5 7 10 9 19 35 46 57 62 66 68 67 66 65 68 69 71 85 100 101 94 76 65 67 57 52 56 48 58
124 117 98 81 69 47 40 34 30 20 17 17 3 359 5 10 9 22 39 40 46 62 66 58 55 56 61 60 61 61 62 69 76 75 87 85 75 69 50 38 53 58 74
142 149 150 141 113 51 19 3 5 17 27 34 31 29 14 27 33 42 49 54 58 67 72 68 64 62 63 63 67 64 58 60 65 76 81 82 82 80 69 53 61 78 87
169 176 179 184 190 212 308 354 347 349 14 30 29 33 38 37 44 47 54 57 53 61 72 68 64 61 61 61 61 64 59 52 63 74 82 81 83 80 78 72 72 78 78
176 186 185 199 202 209 219 244 301 345 351 346 3 25 38 43 45 43 45 58 52 51 62 67 64 58 57 58 58 60 61 59 63 68 72 73 78 83 81 76 72 81 78
182 192 193 198 197 198 197 193 197 278 348 338 350 5 21 36 43 41 45 62 70 61 57 59 57 59 58 59 58 58 62 63 64 68 69 71 75 84 85 81 79 77 79
208 217 198 190 193 189 185 185 187 186 235 317 337 334 354 33 38 30 38 53 69 69 65 65 58 62 65 65 65 65 65 64 65 71 74 76 77 85 93 90 87 86 79
216 230 212 193 202 204 201 203 199 193 206 232 260 275 181 109 93 64 59 65 83 96 96 88 77 69 71 77 80 80 82 76 74 83 89 89 93 90 90 90 91 92 101
211 221 216 216 217 213 212 207 199 201 208 216 232 265 161 144 166 177 188 181 154 150 148 134 122 109 107 114 122 115 107 101 94 97 104 103 100 101 102 97 93 93 104
216 230 236 234 226 225 220 211 206 207 212 212 211 211 203 204 207 210 214 211 192 180 173 166 160 159 139 126 144 159 158 163 163 153 138 128 120 117 115 112 110 108 108
237 243 245 246 233 222 220 220 215 214 214 214 211 211 212 212 213 214 211 203 196 198 197 195 200 204 194 184 182 186 191 194 189 178 164 149 142 135 129 120 115 117 116
247 252 250 245 240 232 227 224 221 219 218 216 215 214 212 208 211 212 205 198 197 203 208 211 215 215 213 212 214 219 219 217 212 193 171 154 146 148 146 142 138 132 136
247 254 253 247 242 236 229 227 226 222 221 221 216 213 210 208 209 207 200 195 199 205 210 213 217 217 216 216 219 224 227 226 216 195 178 161 152 156 152 144 141 138 140
Height
1505 1503 1501 1499 1497 1496 1495 1494 1493 1493 1493 1493 1494 1495 1495 1497 1499 1501 1503 1506 1508 1511 1514 1516 1519 1521 1523 1525 1527 1528 1529 1531 1532 1533 1534 1534 1535 1536 1537 1539 1541 1542 1543
1509 1506 1504 1502 1500 1499 1497 1496 1496 1495 1495 1495 1496 1496 1497 1498 1499 1501 1503 1504 1507 1510 1512 1515 1517 1520 1522 1523 1525 1526 1527 1529 1530 1531 1531 1532 1532 1533 1534 1536 1537 1538 1540
1512 1510 1507 1505 1503 1502 1500 1499 1498 1498 1497 1497 1498 1498 1498 1499 1500 1501 1502 1504 1506 1509 1511 1514 1516 1519 1521 1522 1524 1525 1526 1527 1528 1529 1529 1530 1530 1531 1532 1533 1534 1535 1536
1516 1513 1511 1509 1507 1505 1504 1502 1501 1500 1500 1500 1499 1499 1500 1500 1501 1502 1503 1505 1506 1509 1511 1514 1516 1518 1520 1522 1523 1524 1525 1526 1527 1528 1528 1529 1529 1530 1530 1531 1532 1532 1533
1521 1517 1515 1513 1511 1509 1507 1506 1504 1503 1502 1502 1501 1501 1501 1501 1502 1502 1503 1504 1506 1508 1511 1513 1515 1518 1519 1521 1522 1523 1524 1525 1526 1527 1527 1528 1528 1529 1529 1529 1530 1530 1531
1525 1522 1519 1517 1515 1512 1511 1509 1508 1506 1505 1504 1503 1502 1502 1502 1502 1502 1503 1505 1506 1508 1510 1513 1515 1517 1519 1521 1522 1523 1525 1526 1526 1527 1527 1528 1528 1528 1528 1528 1529 1529 1530
1528 1525 1523 1521 1518 1516 1514 1513 1511 1509 1508 1506 1505 1504 1503 1502 1502 1502 1503 1504 1506 1507 1509 1512 1514 1516 1519 1520 1522 1523 1525 1526 1527 1528 1528 1528 1528 1528 1528 1528 1528 1529 1529
1531 1529 1526 1524 1522 1520 1518 1516 1514 1512 1511 1509 1507 1506 1504 1503 1503 1503 1503 1504 1505 1507 1509 1511 1513 1516 1518 1520 1522 1524 1525 1526 1527 1528 1528 1529 1529 1529 1529 1529 1529 1529 1530
1534 1532 1529 1527 1525 1523 1521 1519 1517 1515 1513 1511 1509 1508 1506 1505 1504 1504 1504 1504 1506 1507 1508 1510 1513 1515 1518 1520 1522 1524 1525 1527 1528 1529 1529 1529 1530 1530 1530 1530 1530 1530 1530
1537 1535 1533 1530 1528 1526 1524 1522 1520 1518 1516 1514 1511 1510 1508 1506 1505 1505 1504 1505 1506 1507 1509 1510 1512 1515 1517 1520 1522 1524 1526 1527 1528 1529 1530 1530 1531 1531 1531 1531 1531 1531 1531
1540 1538 1536 1534 1531 1529 1527 1525 1523 1521 1518 1516 1514 1512 1510 1508 1507 1506 1506 1506 1506 1507 1509 1511 1512 1515 1517 1520 1522 1524 1526 1527 1528 1530 1531 1531 1532 1532 1532 1532 1532 1532 1532
1543 1541 1539 1537 1535 1533 1531 1528 1526 1524 1521 1519 1517 1515 1513 1511 1509 1508 1508 1507 1508 1509 1510 1512 1513 1515 1517 1520 1521 1524 1526 1527 1529 1530 1531 1532 1533 1533 1533 1533 1533 1533 1533
1545 1544 1542 1540 1538 1536 1534 1532 1529 1527 1524 1522 1520 1518 1516 1514 1513 1511 1511 1510 1511 1511 1512 1513 1515 1517 1518 1520 1522 1524 1526 1528 1530 1531 1532 1533 1534 1534 1534 1534 1534 1534 1534
1547 1546 1544 1543 1541 1539 1537 1535 1532 1530 1528 1525 1523 1521 1519 1518 1516 1515 1514 1514 1514 1515 1515 1516 1517 1519 1520 1522 1523 1525 1527 1529 1531 1532 1533 1534 1534 1535 1535 1535 1535 1535 1535
1549 1548 1546 1545 1544 1542 1540 1538 1535 1533 1531 1529 1527 1525 1523 1521 1520 1519 1518 1518 1518 1518 1519 1520 1521 1522 1523 1524 1526 1527 1529 1530 1531 1533 1534 1534 1535 1535 1536 1536 1536 1535 1535
1550 1549 1548 1547 1546 1544 1543 1541 1539 1536 1534 1532 1530 1529 1527 1525 1524 1523 1522 1522 1522 1522 1523 1523 1524 1525 1526 1527 1528 1529 1530 1531 1533 1534 1534 1535 1535 1536 1536 1536 1536 1536 1535
1551 1550 1549 1548 1547 1546 1545 1543 1541 1539 1537 1535 1533 1532 1530 1528 1527 1526 1526 1525 1525 1526 1526 1526 1527 1528 1529 1530 1530 1531 1532 1533 1534 1534 1535 1535 1536 1536 1536 1536 1536 1536 1535
1552 1551 1550 1549 1548 1547 1546 1545 1543 1541 1539 1538 1536 1534 1533 1531 1530 1529 1529 1529 1529 1529 1529 1529 1530 1531 1531 1532 1532 1533 1533 1534 1534 1535 1535 1535 1535 1536 1536 1536 1536 1536 1536
1552 1551 1550 1550 1549 1548 1547 1546 1544 1543 1541 1539 1537 1536 1535 1534 1533 1532 1532 1531 1531 1531 1532 1532 1532 1533 1533 1533 1533 1534 1534 1534 1535 1535 1535 1535 1535 1536 1536 1536 1536 1536 1536
1551 1551 1550 1550 1549 1548 1548 1547 1545 1544 1542 1541 1539 1538 1537 1535 1535 1534 1533 1533 1533 1533 1533 1533 1533 1533 1534 1534 1534 1534 1534 1534 1535 1535 1535 1535 1535 1536 1536 1536 1536 1536 1536
1550 1550 1549 1549 1549 1548 1548 1547 1546 1545 1543 1542 1540 1539 1538 1537 1536 1535 1535 1534 1534 1534 1534 1533 1533 1533 1533 1534 1534 1534 1534 1534 1534 1535 1535 1535 1536 1536 1536 1536 1536 1536 1536
1548 1548 1548 1548 1547 1547 1547 1546 1545 1545 1544 1543 1541 1540 1539 1538 1537 1536 1535 1535 1534 1534 1534 1533 1533 1533 1533 1533 1533 1533 1534 1534 1534 1534 1535 1535 1535 1535 1535 1535 1535 1536 1536
1546 1546 1546 1545 1546 1545 1545 1545 1544 1544 1543 1542 1541 1540 1539 1538 1537 1536 1536 1535 1534 1534 1533 1533 1533 1532 1532 1532 1532 1533 1533 1533 1534 1534 1534 1535 1535 1535 1535 1535 1535 1535 1535
1543 1543 1543 1543 1543 1543 1543 1543 1543 1542 1542 1542 1541 1540 1539 1538 1537 1536 1535 1535 1534 1534 1533 1533 1532 1532 1532 1532 1532 1532 1532 1532 1533 1533 1534 1534 1534 1534 1534 1534 1534 1535 1535
1539 1539 1539 1539 1539 1540 1540 1540 1540 1540 1540 1540 1539 1539 1538 1537 1536 1535 1535 1534 1534 1533 1533 1533 1532 1532 1532 1532 1531 1531 1531 1532 1532 1533 1533 1533 1533 1533 1534 1534 1534 1534 1534
1535 1535 1535 1535 1535 1536 1536 1537 1537 1537 1537 1537 1537 1537 1536 1535 1535 1534 1533 1533 1533 1532 1532 1532 1532 1532 1531 1531 1531 1531 1531 1531 1531 1532 1532 1532 1533 1533 1533 1533 1533 1533 1534